GFSMA_sfc_wetblb_021.txt.gz
Wetbulb
60.69 59.59 58.82 57.98 57.66 55.79 54.29 50.49 48.74 47.06 42.41 39.94 39.43 38.89 38.39 38.26 38.82 41.24 41.28 50.66 54.74 57.56 58.46 59.76 60.28 60.36 60.79 61.29 61.59 60.72 60.43 59.25 57.36 57.41 57.47 58.12 59.68 58.10 59.35 59.90 59.30 59.44 59.91
59.05 59.48 57.70 56.89 56.11 55.22 52.68 50.12 48.39 45.88 40.87 38.65 38.72 38.53 38.11 37.97 38.33 40.75 41.78 45.50 54.66 56.92 58.51 59.49 60.07 60.80 61.35 61.08 61.24 61.63 62.16 59.89 57.41 56.99 55.51 56.08 57.48 57.40 58.58 58.11 56.24 56.27 57.11
60.86 58.98 57.51 55.80 55.47 53.90 51.96 50.01 46.23 42.43 39.48 38.19 37.35 37.56 37.51 37.67 38.12 38.72 42.17 43.56 47.64 52.13 56.51 57.78 59.01 60.50 61.54 61.12 62.00 62.71 61.54 58.70 56.91 57.31 54.89 55.79 56.94 57.13 57.57 56.19 55.13 55.97 56.07
60.00 57.72 56.38 55.44 55.48 53.48 51.86 49.59 46.24 41.83 39.59 37.15 35.82 35.80 35.80 36.80 37.61 37.77 39.42 42.13 44.60 46.29 49.75 54.77 56.15 58.01 60.42 61.16 61.50 60.71 60.00 59.35 57.54 56.44 54.66 55.61 55.69 56.16 55.64 55.29 55.37 55.06 55.25
58.50 57.22 55.97 55.72 53.96 52.00 50.59 48.51 44.12 43.47 39.24 36.86 36.17 35.12 34.68 35.23 36.38 37.98 37.24 39.17 41.87 43.38 44.20 48.34 51.66 51.00 54.17 58.59 61.68 60.62 60.63 60.35 59.00 56.10 55.14 54.86 54.86 54.94 54.73 54.82 54.74 54.66 54.71
55.45 55.11 54.61 53.40 52.33 50.93 48.90 46.63 44.38 40.28 39.12 37.35 37.50 35.99 33.70 34.45 35.16 34.78 35.46 37.44 38.18 38.30 40.84 42.21 42.68 43.73 49.72 54.58 58.85 60.00 60.82 60.57 58.40 56.43 55.54 54.52 54.11 54.58 54.00 54.20 54.28 54.19 54.43
53.57 52.54 51.31 50.89 49.72 49.84 47.98 45.48 41.65 41.02 39.26 37.50 35.18 34.04 33.82 34.32 34.29 34.59 34.16 34.77 35.44 36.18 36.76 39.27 39.87 40.51 42.41 51.21 55.60 58.72 59.57 60.39 58.28 56.47 55.54 54.77 53.68 53.90 53.36 53.55 54.01 54.13 54.29
42.94 47.31 47.60 46.99 46.83 46.32 44.97 43.57 41.50 40.18 39.04 37.79 36.69 33.36 31.73 33.21 33.05 33.97 33.64 34.28 33.97 34.31 34.85 35.88 36.41 37.91 39.15 41.61 45.47 54.29 58.54 59.39 59.15 57.18 55.46 54.31 53.83 53.17 53.29 53.83 53.95 53.96 54.01
37.64 38.66 39.85 42.38 42.69 43.23 43.35 42.81 40.98 39.83 39.20 37.69 36.81 37.32 33.18 29.33 28.73 31.53 31.84 32.49 32.77 32.55 32.82 33.78 34.89 35.94 36.76 39.12 44.63 48.17 53.88 57.16 58.67 57.85 56.25 54.55 53.35 52.98 52.90 53.10 53.54 53.70 53.92
34.83 36.01 36.38 36.90 37.70 39.85 40.84 40.59 40.94 39.62 38.26 37.44 36.96 36.97 35.14 34.50 31.87 31.27 31.42 31.34 31.79 33.05 32.18 32.49 33.18 34.04 35.23 36.70 41.57 45.01 47.99 51.89 55.66 57.93 55.93 54.01 53.00 52.56 52.75 53.13 53.27 53.31 53.46
32.45 32.76 33.59 34.43 34.58 35.40 35.16 36.23 38.51 39.07 38.53 37.08 36.83 36.00 34.38 34.24 33.09 32.23 32.09 29.87 30.69 31.40 32.30 32.95 33.14 33.13 34.05 34.74 37.49 41.09 46.57 49.97 53.90 54.73 54.39 52.79 52.02 51.63 52.21 52.46 52.72 52.88 53.25
30.69 30.88 31.34 31.19 31.55 31.99 32.70 33.65 34.33 35.08 36.13 37.62 37.27 36.27 35.08 34.45 33.41 32.66 31.28 30.71 30.80 31.11 30.50 31.14 31.22 33.48 33.89 33.74 37.50 41.95 45.16 48.72 52.85 52.40 52.05 51.32 50.44 50.22 50.70 51.76 52.24 52.47 52.67
27.89 28.18 29.16 29.04 29.39 29.83 30.09 30.44 31.02 31.27 32.55 32.27 33.48 35.66 37.28 36.76 36.07 35.10 33.80 33.89 31.88 29.69 29.50 29.37 31.09 32.78 33.80 32.83 34.77 40.03 42.64 46.79 50.98 51.10 50.08 49.52 49.39 49.13 49.10 50.31 51.30 51.68 51.97
26.83 27.27 27.26 27.67 27.69 28.01 28.21 28.24 27.31 27.47 28.40 29.14 29.61 30.25 31.70 33.53 35.01 35.67 34.90 33.33 31.96 33.89 33.65 29.77 29.35 30.59 32.08 32.86 34.81 38.75 38.44 43.85 48.10 50.34 49.44 48.56 48.41 48.39 47.95 48.65 49.98 50.56 50.69
27.76 26.21 25.59 25.38 26.10 26.49 26.43 25.91 25.38 25.37 26.04 26.94 27.26 28.82 29.40 31.29 32.14 32.66 33.49 34.73 33.15 29.83 30.94 34.28 28.01 30.35 31.18 32.13 34.15 34.94 36.19 39.42 44.74 47.84 49.00 48.21 47.25 47.03 46.91 47.39 48.47 49.50 49.80
24.93 24.86 24.64 24.65 24.99 25.16 25.08 24.75 24.91 25.17 24.23 24.49 26.02 26.17 26.67 28.16 29.25 30.39 31.00 32.02 32.32 32.33 29.97 31.68 34.24 29.79 30.66 32.09 33.01 33.96 34.57 37.99 41.14 45.10 46.70 46.93 46.24 45.53 45.62 46.29 46.97 48.06 48.54
24.38 24.53 24.59 24.05 23.71 23.50 23.73 23.28 23.29 23.80 23.49 24.00 24.45 24.26 25.38 26.40 26.97 27.62 28.08 29.02 30.55 30.76 29.52 31.99 32.79 30.23 28.97 29.46 30.72 32.24 33.99 34.32 35.58 41.38 44.45 45.48 45.41 45.17 44.75 44.98 45.67 46.36 47.01
24.29 24.21 24.38 23.82 23.28 23.08 22.83 21.98 22.15 22.56 22.00 22.50 23.71 24.35 24.51 26.66 25.15 25.99 26.68 27.27 28.20 29.34 29.21 28.18 31.16 31.65 28.02 28.48 29.66 30.56 31.78 33.20 33.18 36.97 42.17 44.16 44.55 44.37 44.26 44.38 44.59 45.06 45.38
23.12 23.01 23.37 22.39 22.30 22.38 22.34 22.25 22.06 22.08 22.06 22.72 23.33 23.71 24.11 24.50 24.47 25.13 25.02 26.44 27.40 29.54 29.36 28.64 28.45 30.68 30.61 27.41 27.86 29.07 29.95 32.13 31.83 35.11 38.82 41.98 43.14 43.60 43.68 43.48 43.73 43.77 43.66
21.16 20.71 20.70 20.70 20.79 21.07 21.50 21.86 22.42 22.45 22.69 23.25 23.54 23.40 23.23 23.25 23.54 24.22 25.19 25.66 26.64 26.68 27.47 27.99 28.16 28.57 29.43 29.13 27.93 28.35 27.55 29.31 29.52 30.74 33.96 36.68 40.11 41.17 42.74 42.90 42.53 41.62 42.15
19.70 19.42 19.02 18.86 19.03 19.50 21.34 21.05 21.43 20.80 20.48 20.50 21.50 22.30 22.82 23.60 26.16 26.49 24.94 24.54 25.29 25.63 25.84 25.94 26.24 27.10 27.99 24.71 26.83 28.94 28.54 29.98 29.11 30.42 28.88 30.16 33.49 35.84 37.51 41.00 39.42 39.90 41.54
17.12 16.95 16.50 16.18 15.69 18.09 20.99 21.99 21.54 19.25 19.47 19.15 18.47 19.34 20.16 20.85 22.52 25.25 26.50 27.53 27.10 24.41 25.10 26.23 26.18 25.72 26.60 28.22 28.81 29.56 28.88 27.99 25.83 29.15 28.32 27.84 30.49 31.71 34.00 35.65 39.15 40.12 40.99
14.48 13.74 13.69 13.65 12.99 13.38 18.22 20.34 20.45 17.82 16.65 15.87 16.05 16.57 17.27 18.66 18.23 18.51 20.96 23.15 23.81 25.35 27.02 25.84 26.25 27.62 27.43 28.80 29.20 27.85 29.02 29.41 29.38 28.71 29.15 27.52 28.58 28.32 31.87 33.49 38.00 39.96 40.26
11.38 10.96 10.84 10.54 10.60 12.19 16.89 17.86 18.16 16.01 14.77 14.48 14.37 14.62 14.63 14.87 15.88 16.53 16.55 16.33 17.70 19.00 20.45 21.74 22.95 25.71 28.32 29.85 30.94 31.02 29.95 29.88 30.65 30.80 29.91 26.41 29.38 27.09 29.68 31.47 35.98 38.67 39.87
8.30 7.49 9.37 8.54 7.32 7.80 13.70 15.81 16.18 13.43 13.04 12.84 13.70 14.14 14.42 14.22 16.86 19.40 17.63 16.34 16.85 17.97 22.22 24.47 25.30 26.95 28.77 31.02 33.06 30.89 29.56 27.90 27.12 27.69 26.38 28.16 29.39 28.07 28.16 28.79 30.84 36.65 38.68
7.45 7.90 7.13 6.85 6.18 4.73 10.98 14.02 15.28 12.80 10.43 11.53 12.91 14.06 16.74 16.48 19.10 20.59 17.64 15.83 13.43 14.87 16.66 17.71 19.82 22.32 24.56 25.51 29.85 31.65 30.57 28.95 27.91 26.85 29.68 26.19 27.88 25.31 22.78 27.34 28.62 29.79 33.99

GFSMA_sfc_wetblb_024.txt.gz
Wetbulb
61.35 60.62 60.11 59.29 58.93 57.44 56.74 54.75 51.25 48.62 45.59 40.94 38.92 38.35 37.62 37.23 37.21 39.17 40.19 47.13 53.72 56.84 59.20 59.72 60.57 60.57 60.69 60.95 61.23 61.30 60.53 60.37 57.77 57.48 56.92 57.99 58.43 58.37 59.76 59.80 59.60 59.65 60.04
59.10 58.97 58.56 56.37 57.72 57.03 55.61 53.77 51.56 48.17 45.19 39.91 38.89 38.19 37.59 37.14 37.32 38.04 40.47 41.95 50.84 55.59 58.05 59.99 60.29 60.75 61.27 61.64 61.13 61.03 61.32 60.89 58.99 57.23 56.12 56.25 57.44 57.68 58.22 58.69 56.86 56.75 57.65
59.61 59.51 58.47 57.41 57.36 55.89 54.05 52.04 49.76 47.04 44.32 39.67 37.95 37.33 36.97 36.95 37.07 37.48 38.63 41.37 44.20 50.28 54.22 58.24 59.08 60.38 61.29 62.29 61.55 62.83 62.69 60.12 58.41 57.18 55.43 55.69 56.75 57.37 57.36 56.96 55.69 55.99 56.25
60.55 58.74 57.69 56.44 56.03 54.47 53.20 51.44 49.06 46.82 44.90 42.09 38.99 36.78 35.60 35.79 36.55 36.91 37.04 38.92 41.97 44.45 48.23 53.28 55.95 57.18 59.12 61.62 61.79 61.50 62.20 60.29 58.18 58.18 56.22 55.78 56.03 56.67 56.23 55.77 55.40 56.03 55.70
57.02 57.24 55.68 54.79 54.61 52.96 51.51 49.85 46.61 45.83 44.83 42.96 40.75 38.80 35.47 34.76 35.33 37.05 35.95 36.70 38.25 42.33 42.51 47.28 51.13 51.48 54.17 57.94 60.37 61.97 61.66 60.90 60.12 58.90 56.08 55.49 55.35 55.40 55.53 55.37 55.22 55.12 55.12
50.87 52.61 52.60 51.87 52.17 51.33 49.65 48.39 46.47 43.09 41.40 40.59 39.80 38.79 35.75 35.08 34.85 34.83 35.07 36.18 36.34 37.78 38.15 39.90 41.27 43.31 49.20 54.20 57.53 60.55 61.94 60.78 61.04 58.46 56.78 56.01 55.12 54.68 55.19 54.64 55.06 54.71 54.77
43.00 45.19 46.81 46.72 47.89 47.33 46.70 45.69 43.51 42.81 41.85 38.87 39.00 39.67 38.12 36.25 34.54 34.60 34.44 34.24 34.62 35.52 35.53 36.44 38.27 38.96 40.68 49.16 53.40 57.14 60.78 60.43 61.25 59.76 57.85 56.20 55.91 54.66 54.71 54.55 54.35 54.85 55.16
37.74 38.70 40.04 41.60 42.26 43.11 41.68 41.43 40.52 40.07 39.74 38.67 38.22 35.80 34.68 35.31 33.80 33.45 33.04 34.03 33.65 33.62 34.17 34.90 34.64 35.87 36.75 38.48 42.95 52.03 55.68 59.49 60.32 60.03 58.73 56.72 55.71 55.01 54.68 54.56 54.50 54.87 55.10
34.49 35.80 35.97 36.57 37.07 38.19 38.54 39.36 40.10 39.10 38.81 38.54 37.50 37.58 35.52 33.41 31.32 33.18 32.87 32.48 32.67 32.72 33.37 33.40 34.04 34.50 35.07 35.55 40.30 43.74 49.62 53.57 57.28 59.22 59.51 58.01 56.26 55.37 54.34 54.30 54.33 54.44 54.68
31.57 32.18 32.70 33.12 33.95 34.62 34.25 35.58 38.06 37.07 36.10 35.30 37.91 37.33 35.68 34.87 32.78 30.22 32.41 34.10 32.09 32.50 32.43 32.46 33.01 33.56 34.15 34.46 38.03 41.79 44.92 48.21 51.04 53.69 56.86 58.44 57.09 55.46 54.48 53.95 53.96 54.13 54.11
30.04 30.36 30.44 30.41 30.55 31.13 31.39 32.06 33.26 34.32 35.62 34.71 34.72 35.90 35.09 34.60 34.22 32.16 31.03 31.07 33.13 33.66 32.67 32.48 32.72 32.52 33.39 33.65 33.92 37.03 42.85 45.69 48.21 50.70 52.65 54.74 57.25 55.43 54.42 53.80 53.82 53.89 54.05
28.10 28.15 28.87 28.53 28.84 28.87 28.87 29.59 29.44 30.46 30.70 32.09 32.67 33.63 33.58 34.24 33.88 33.67 32.66 34.03 33.34 33.97 31.89 32.27 31.55 32.03 32.58 32.41 35.39 39.41 41.87 44.41 46.70 49.10 52.44 54.52 55.62 54.48 53.84 53.19 53.12 53.59 53.77
25.13 25.54 26.19 26.00 26.35 26.69 27.08 27.24 26.33 26.97 27.11 27.42 28.18 30.12 31.90 32.47 33.59 32.99 32.21 31.87 31.44 32.06 31.61 30.65 32.22 31.90 33.33 32.20 32.90 37.17 39.72 42.77 45.14 47.35 51.78 53.38 54.04 53.19 52.52 52.33 52.14 52.35 53.04
24.57 24.72 24.41 24.34 24.51 25.05 25.00 24.71 24.64 24.80 24.78 25.15 24.39 25.71 28.35 29.46 31.24 31.82 31.33 29.52 28.96 31.01 33.52 33.27 30.10 31.39 31.64 32.03 33.30 37.65 35.47 40.34 43.23 45.61 49.12 51.86 52.02 51.94 51.38 51.34 51.26 50.96 51.67
26.11 24.46 24.15 23.65 23.65 23.94 24.15 23.68 23.16 23.08 23.45 23.74 23.75 24.68 25.37 26.25 28.46 28.82 29.79 29.61 28.85 27.04 27.57 31.27 30.43 31.42 31.45 31.19 32.63 32.56 32.62 37.13 40.83 43.34 47.05 50.63 50.99 50.51 50.64 50.61 50.39 50.17 50.67
24.32 24.09 23.88 23.53 23.28 23.31 23.07 22.41 22.36 22.83 22.43 22.23 23.43 22.85 23.38 24.48 25.33 25.99 26.88 27.67 28.11 28.13 25.48 29.75 31.45 31.62 32.31 33.49 32.73 32.82 32.46 36.35 38.35 40.52 43.74 46.98 49.44 49.59 49.56 49.02 49.05 48.91 49.40
23.19 23.31 23.65 23.25 22.78 22.29 22.19 21.18 21.05 21.65 21.02 21.44 21.76 22.19 23.11 23.76 23.90 24.60 25.14 25.31 25.56 25.90 24.86 26.91 29.76 31.48 30.31 30.37 32.63 31.49 31.85 32.41 33.75 38.17 40.42 43.27 46.34 47.96 48.42 48.10 47.61 47.65 47.99
23.34 23.13 23.18 22.66 22.23 21.88 21.76 21.02 20.78 20.73 20.25 20.72 21.48 21.86 22.02 24.40 22.63 23.33 23.78 23.77 24.26 25.17 24.75 23.22 26.45 27.79 28.63 30.61 29.41 29.77 31.69 31.68 31.91 35.72 38.95 40.67 43.35 45.34 46.52 46.75 46.56 46.57 46.86
21.76 21.63 21.21 20.36 20.14 20.27 20.18 20.29 20.62 21.26 21.38 21.48 21.84 21.73 21.82 21.91 21.59 22.08 22.31 22.65 23.50 25.27 24.88 24.25 24.38 27.40 28.29 29.10 29.08 28.89 29.01 30.34 31.07 34.90 38.03 39.23 40.38 43.12 44.98 45.71 45.45 44.98 44.64
19.27 18.69 18.86 18.85 18.84 18.86 19.30 20.21 20.60 20.14 19.83 20.34 20.68 20.75 20.79 20.92 20.84 20.87 21.54 21.87 23.15 23.44 24.30 24.08 24.06 24.61 26.04 28.04 26.49 27.27 28.06 27.59 29.16 30.98 33.56 35.45 37.51 39.63 42.66 44.54 44.31 43.06 43.03
18.09 17.84 17.27 16.80 17.11 17.45 20.11 19.39 19.64 19.12 18.58 18.48 18.98 19.38 19.64 20.32 22.51 22.52 21.19 20.77 21.58 21.58 21.76 21.82 21.65 23.04 24.23 24.96 25.10 27.48 26.80 28.38 28.84 29.60 29.60 29.50 31.32 33.27 36.29 41.30 41.13 41.43 42.64
15.72 15.50 14.88 14.25 13.54 16.34 19.51 21.22 21.19 18.53 17.66 16.67 15.71 16.52 17.04 17.29 18.78 20.81 21.84 22.67 22.42 19.82 19.27 20.41 21.59 22.10 23.54 25.47 27.28 26.79 27.02 26.52 25.27 28.11 28.31 29.09 29.32 29.81 32.43 35.63 39.86 41.84 42.33
13.39 12.52 12.35 12.20 11.54 12.11 18.18 20.35 20.28 17.43 16.19 15.33 14.96 14.77 15.07 16.57 16.04 16.05 17.70 19.58 19.94 20.77 21.96 19.28 17.49 18.32 19.34 22.26 24.56 26.28 27.77 27.01 26.95 29.39 27.01 26.65 28.03 27.51 30.57 33.09 38.53 40.78 41.69
10.52 10.01 9.96 9.67 10.11 11.48 16.91 18.09 18.80 16.21 14.30 14.14 14.13 14.18 13.85 14.02 14.80 15.59 15.64 15.83 16.81 17.92 18.99 19.33 18.30 18.20 19.19 20.32 20.49 21.82 23.51 26.35 28.58 30.05 28.18 25.93 27.33 27.69 29.27 30.63 36.04 38.92 40.33
7.68 6.63 9.40 7.45 6.61 7.43 13.85 16.58 16.67 13.99 13.56 13.20 13.89 14.12 14.07 13.75 16.46 19.20 17.32 16.18 16.58 17.40 21.01 22.69 23.37 24.26 25.04 25.66 25.72 23.41 21.08 21.08 21.21 24.55 29.60 27.34 28.83 28.73 26.87 28.19 30.60 36.19 38.75
7.42 7.76 7.27 6.50 5.93 4.39 11.04 14.74 15.97 13.99 11.50 12.37 12.96 14.23 17.23 17.39 19.93 21.33 18.24 16.62 14.55 15.68 16.77 16.25 17.40 19.36 21.36 20.57 23.32 21.10 19.60 17.61 19.83 20.59 28.96 26.53 27.09 25.80 21.34 25.22 28.95 30.17 32.97

GFSMA_sfc_wetblb_030.txt.gz
Wetbulb
66.63 67.31 65.41 63.58 63.54 63.05 63.12 60.18 57.58 55.54 56.64 56.22 53.65 51.75 50.39 50.20 49.99 50.49 51.16 49.11 50.18 53.66 56.78 60.04 61.62 61.70 61.28 61.40 61.37 61.33 61.00 60.83 59.36 58.17 57.00 57.35 58.13 58.90 58.79 60.02 59.65 59.23 59.45
63.75 63.62 63.03 63.53 62.39 61.52 60.48 58.68 56.13 54.84 52.61 51.23 54.43 51.98 51.12 50.91 50.14 49.92 50.10 51.02 48.01 50.54 52.78 56.41 59.85 61.89 62.93 62.64 62.12 61.88 61.77 61.81 61.82 59.08 57.54 56.42 57.30 57.79 57.57 58.52 58.06 57.35 57.52
61.31 60.44 59.23 58.56 58.40 58.50 56.70 55.78 54.13 53.55 52.56 53.53 51.88 50.92 52.30 51.56 51.08 49.98 49.61 49.53 50.35 50.48 50.07 53.00 55.18 57.81 58.99 60.22 62.42 63.81 62.47 63.42 62.39 59.48 57.86 56.37 56.41 56.79 58.00 57.96 57.84 56.36 56.63
57.34 56.58 55.86 55.07 55.55 55.01 54.14 52.60 51.82 51.26 51.05 52.58 53.98 52.37 49.54 51.67 51.48 50.97 50.53 50.18 49.73 48.91 51.24 50.07 51.63 53.46 55.27 57.07 58.50 60.53 61.82 62.72 61.95 60.34 59.86 58.24 55.56 56.25 56.84 56.74 57.25 56.31 56.53
51.37 51.07 52.74 52.89 52.80 52.25 52.25 51.87 51.49 50.23 50.01 49.06 46.82 47.61 47.74 47.76 51.51 50.60 50.62 49.31 48.69 48.30 48.43 48.60 47.29 48.05 49.92 53.05 55.85 57.73 59.33 60.59 61.89 62.23 60.24 57.80 56.63 56.16 56.18 56.06 56.62 56.55 56.75
49.25 49.93 49.32 50.27 51.39 51.74 50.45 52.00 51.52 50.88 49.27 48.55 47.56 47.73 51.96 51.41 51.58 50.84 48.88 47.47 47.71 47.09 47.46 47.40 48.35 48.53 47.16 49.52 51.74 53.67 55.56 58.11 60.18 61.80 61.22 59.08 58.41 57.67 56.39 56.16 55.97 55.99 56.47
47.09 47.93 47.82 48.59 49.23 48.42 48.28 48.63 50.44 49.34 47.83 48.19 50.29 50.65 51.66 49.24 48.24 48.76 48.81 47.93 46.79 47.25 47.34 46.98 47.01 47.05 47.25 47.45 48.38 50.12 52.16 53.85 56.10 59.70 60.93 61.25 58.88 57.98 57.40 56.92 56.13 55.84 55.98
42.25 43.01 43.98 43.83 45.13 45.22 44.86 45.85 46.79 47.50 47.23 46.29 45.06 47.45 46.77 48.72 47.68 48.46 47.32 45.61 46.92 47.12 47.24 47.57 47.43 47.20 47.17 47.51 47.45 48.47 50.08 51.40 52.32 53.47 56.39 59.12 60.25 60.12 58.65 57.85 57.08 56.43 56.45
39.11 39.52 39.65 39.79 39.95 41.03 39.93 41.18 42.84 43.98 43.32 45.22 44.92 44.19 43.12 41.88 42.66 46.61 45.17 46.79 45.53 45.55 46.06 46.33 46.26 46.68 47.04 47.47 47.45 47.51 47.25 47.89 49.83 50.90 51.68 52.59 55.75 58.61 59.78 59.37 57.95 56.91 56.19
36.98 37.41 37.50 37.59 37.57 37.66 37.16 37.07 37.98 38.45 39.39 37.36 42.02 41.70 43.15 41.86 39.18 38.56 43.50 43.03 42.62 40.13 41.73 43.98 43.15 44.66 45.64 46.24 46.29 45.17 44.36 44.90 46.35 48.06 49.39 50.69 51.65 53.11 56.26 58.61 59.48 57.84 56.49
35.75 35.69 36.04 36.07 35.78 36.03 35.91 35.79 35.95 35.96 36.26 35.84 35.72 36.26 37.14 38.56 39.31 34.63 33.18 35.48 37.39 38.89 41.06 39.38 41.65 42.34 44.56 45.64 45.51 44.56 42.56 43.83 44.84 45.65 46.95 48.46 49.90 51.24 52.17 54.18 57.52 59.21 57.29
34.18 34.05 34.03 34.07 33.99 33.87 33.75 34.24 34.45 34.00 34.39 34.33 34.68 34.76 33.93 32.96 32.50 32.52 31.77 32.64 33.24 35.61 37.11 38.33 39.76 41.29 42.82 44.02 43.07 40.90 41.37 42.82 44.03 44.79 45.34 46.19 47.67 49.43 50.96 51.92 53.50 57.25 58.30
32.85 32.34 33.19 32.75 32.20 32.12 32.05 32.73 32.46 32.08 31.84 31.74 31.88 32.36 33.10 32.76 33.05 32.68 31.65 31.07 30.60 33.47 34.69 37.60 38.31 40.92 40.43 42.80 42.86 39.42 39.59 41.30 42.21 42.60 43.79 45.02 46.37 47.39 48.93 50.66 51.72 53.43 57.89
32.32 32.42 32.05 31.68 31.20 30.99 31.11 31.33 31.05 30.66 30.76 30.72 30.42 30.97 30.82 31.67 31.94 31.52 30.35 29.13 27.71 30.19 32.95 33.83 37.31 39.12 40.01 41.37 39.09 37.83 38.70 39.95 40.17 41.04 41.78 42.75 44.71 46.11 47.10 48.64 50.71 52.50 56.92
31.48 31.52 31.53 31.27 31.11 30.74 30.64 30.89 30.42 29.61 30.00 29.79 29.89 29.86 29.51 30.37 30.78 30.97 30.90 30.55 28.32 24.74 27.45 32.04 32.36 36.83 37.31 36.81 36.55 36.34 36.65 37.43 38.64 39.35 39.98 41.01 42.13 43.97 45.54 46.97 48.64 51.46 54.61
31.38 31.15 30.97 30.86 30.43 30.21 29.95 30.05 29.73 29.78 29.30 29.94 29.47 29.10 29.47 29.94 29.65 30.18 29.98 29.68 29.31 27.29 24.51 30.41 32.03 33.47 34.35 33.91 34.43 34.93 35.04 35.75 37.10 37.90 38.50 39.16 40.26 41.36 42.95 44.87 46.50 48.62 51.69
30.97 30.20 29.56 29.17 28.64 28.33 28.28 28.35 27.98 27.91 27.06 27.51 28.44 27.82 27.67 28.47 28.25 28.70 28.86 28.65 28.03 27.87 25.12 28.25 30.16 31.56 31.12 31.20 32.65 33.68 34.74 34.46 36.22 36.76 37.00 38.10 38.80 39.62 40.83 42.34 44.21 45.76 47.71
29.68 28.96 28.08 27.64 27.12 26.74 26.65 26.19 25.82 26.16 25.59 25.64 26.03 25.85 25.82 26.30 25.78 26.67 26.85 26.18 26.18 26.68 24.78 23.31 26.45 27.57 28.42 30.15 31.07 30.94 31.84 32.73 33.85 35.13 36.41 37.21 37.90 38.58 39.37 40.62 41.91 43.47 45.07
28.30 27.26 26.50 25.79 25.26 25.04 24.78 25.06 25.31 25.08 25.15 25.16 25.14 24.53 24.48 24.35 23.37 24.26 24.18 23.86 24.39 24.56 24.45 23.69 23.40 25.59 26.81 28.23 28.42 29.33 29.81 31.00 32.82 34.28 35.68 36.05 36.52 37.28 38.15 39.04 40.07 42.14 42.87
26.66 25.68 25.09 24.34 23.87 23.64 23.67 24.46 24.48 24.72 24.83 24.80 24.58 24.09 23.45 22.77 22.14 22.04 21.74 21.91 22.42 22.26 22.39 22.06 22.45 22.82 23.30 25.03 25.86 25.78 26.75 29.63 29.56 32.08 33.94 35.02 35.78 36.15 36.70 37.53 38.09 38.84 40.37
25.22 24.42 23.51 22.40 22.30 22.20 23.59 23.69 24.22 24.17 23.49 23.04 23.14 22.81 22.80 22.31 21.13 21.36 20.62 20.84 20.65 20.23 19.70 19.17 18.99 20.39 20.54 21.12 20.45 22.83 22.42 24.49 25.97 27.82 28.45 31.55 34.65 35.85 36.70 37.37 36.84 37.49 38.69
22.24 21.62 20.72 19.96 19.63 21.04 19.86 21.96 23.05 22.62 22.11 21.21 20.68 21.12 21.31 20.62 20.96 21.10 21.25 21.69 21.27 19.42 18.02 18.62 17.87 17.20 18.47 20.38 21.73 21.23 20.73 19.93 18.48 25.89 24.99 24.48 27.74 27.80 29.96 35.58 36.61 37.26 36.84
21.05 19.62 19.20 18.76 18.27 18.78 18.38 21.30 21.73 21.28 20.97 20.61 19.45 19.08 19.12 20.03 19.74 19.32 19.81 20.65 20.86 21.55 22.32 20.40 18.66 18.42 18.73 20.15 20.90 19.65 19.75 20.16 20.28 23.76 23.64 21.62 26.18 25.80 29.39 31.23 32.72 35.57 36.39
18.96 18.51 18.10 17.40 17.24 17.59 17.84 19.31 20.61 20.71 20.08 19.55 19.14 18.70 18.29 18.58 19.41 19.08 18.84 19.23 19.54 20.62 21.23 21.64 21.30 21.52 21.97 22.99 22.67 22.38 22.00 22.13 23.16 24.11 24.83 19.65 24.55 24.41 27.47 29.29 30.87 32.15 33.78
17.57 16.96 16.78 16.00 14.49 15.00 15.85 18.11 19.15 19.42 18.89 18.31 18.85 19.19 19.19 18.47 20.07 22.33 21.45 20.50 20.82 21.51 24.10 25.12 25.62 26.28 26.79 27.17 26.72 24.89 22.76 21.58 19.82 21.42 24.37 21.94 22.63 22.55 23.75 25.01 27.51 29.67 32.49
16.20 15.87 15.44 14.91 12.86 11.70 14.22 16.54 18.64 19.24 18.02 18.49 19.24 19.84 21.38 21.21 22.41 23.49 21.86 21.32 19.85 21.56 23.22 23.91 24.25 24.94 25.56 24.96 25.53 24.52 22.90 19.15 18.99 18.22 22.84 20.42 21.41 21.57 18.30 24.01 26.09 27.61 29.49

GFSMA_sfc_wetblb_033.txt.gz
Wetbulb
66.93 67.17 66.02 65.83 64.20 63.96 63.80 62.47 60.38 58.09 56.72 56.30 56.02 54.39 53.16 52.40 51.80 51.94 52.61 49.77 50.32 52.83 55.43 58.06 61.79 63.33 63.42 62.57 61.82 61.53 61.54 61.70 60.76 59.02 57.74 57.76 58.62 58.66 59.32 59.32 59.98 59.30 59.37
62.71 62.64 62.23 61.51 61.22 61.53 60.25 58.40 57.22 56.53 54.50 53.62 54.82 54.38 54.10 54.12 53.32 52.67 52.48 52.75 50.48 50.29 51.58 54.64 56.98 59.84 61.41 62.03 62.92 64.09 63.81 62.42 63.14 61.73 58.42 56.78 57.46 57.84 58.34 58.27 58.56 58.04 57.68
61.12 59.02 57.62 56.71 56.72 57.18 56.69 55.89 54.52 54.61 55.52 54.49 54.66 54.60 54.25 54.93 54.03 53.43 53.11 52.77 52.75 52.16 51.08 52.39 52.90 54.52 56.52 58.77 59.73 60.98 62.80 63.49 63.30 60.80 59.60 57.84 56.58 56.27 57.11 57.98 57.91 57.62 56.96
56.49 56.88 55.99 54.32 54.43 53.93 53.65 52.33 51.89 51.38 51.51 50.82 51.07 52.13 51.02 51.15 53.93 53.62 52.99 52.23 51.86 49.91 52.34 50.22 50.13 51.34 52.44 53.99 56.11 58.14 59.50 60.74 62.20 61.69 60.74 59.37 57.33 56.26 55.66 56.75 57.37 57.19 57.22
51.62 52.00 51.93 52.05 51.79 51.58 52.43 53.08 52.81 52.61 51.98 51.91 50.83 51.74 51.72 50.28 52.75 53.07 51.96 50.07 49.54 48.98 48.65 50.38 49.73 49.26 49.60 51.73 53.36 54.66 55.85 56.93 58.49 60.44 61.97 61.23 58.76 57.65 57.12 56.87 56.51 56.79 56.71
52.16 52.90 52.59 52.10 52.81 52.06 51.58 53.47 53.06 52.41 50.00 49.38 49.88 51.88 54.25 53.63 52.83 50.79 49.57 48.90 48.54 48.81 48.55 48.24 48.61 48.08 49.74 49.86 51.36 52.52 53.61 54.20 54.92 55.98 59.26 61.20 60.50 59.36 58.67 57.50 57.01 56.45 56.84
48.57 48.99 48.70 49.26 49.32 48.30 48.20 49.03 50.83 49.48 47.95 48.37 49.94 49.66 52.21 50.10 49.64 50.27 49.22 48.34 48.17 48.36 48.68 48.73 48.47 48.36 48.25 50.27 50.68 51.66 53.03 53.43 53.63 53.63 54.29 55.80 58.73 60.56 59.54 58.58 58.01 57.11 56.87
43.44 43.78 44.22 44.35 44.96 43.95 43.85 44.69 46.03 47.30 46.84 46.33 43.89 47.24 46.53 47.33 47.88 47.94 48.26 47.47 46.12 42.70 44.93 44.32 45.56 45.59 46.85 47.32 48.54 50.63 51.20 51.58 52.15 52.45 52.77 53.15 53.96 55.53 58.58 60.42 59.60 58.87 58.03
40.31 41.37 40.82 40.90 40.64 40.56 38.98 39.88 40.75 40.96 40.50 43.55 42.58 42.82 41.03 39.78 40.95 46.82 45.96 43.14 41.52 39.73 41.46 43.00 40.61 42.46 43.81 45.63 47.05 47.18 47.07 47.87 49.42 50.33 51.05 51.73 52.44 53.17 53.86 55.64 58.81 60.00 59.25
38.45 39.24 39.27 39.15 39.22 39.15 38.26 38.37 38.68 38.53 39.01 36.37 40.10 39.29 40.23 40.63 35.82 34.04 39.39 40.74 38.76 38.58 38.24 39.39 38.53 42.29 42.60 44.30 46.12 45.56 44.25 45.07 45.24 46.78 48.40 49.53 50.65 51.98 52.94 53.61 54.22 56.44 59.14
37.02 37.05 37.38 37.58 37.11 37.38 37.24 36.83 36.67 36.70 36.77 36.09 35.93 36.24 36.66 36.28 37.04 32.78 30.29 32.34 35.66 36.92 38.45 36.99 37.86 39.46 41.22 41.20 43.94 43.64 42.45 42.21 42.00 43.65 44.52 45.86 48.28 49.85 51.16 52.41 53.36 53.89 55.16
35.55 35.67 35.74 35.87 35.44 35.08 35.09 35.26 35.75 34.68 34.97 34.49 34.77 34.42 33.25 31.78 31.02 30.76 29.82 30.26 30.63 33.59 35.17 36.53 38.51 38.07 40.51 38.46 42.19 41.01 40.17 40.18 41.39 42.38 42.91 43.40 44.52 46.54 49.23 50.72 51.75 52.95 53.61
33.90 33.99 34.51 34.11 33.66 33.66 33.67 34.08 33.85 33.10 32.84 32.33 32.35 32.04 32.69 32.32 32.15 31.21 29.87 29.07 27.80 30.81 33.22 35.18 36.90 37.35 38.13 40.20 39.93 37.64 38.01 38.89 40.16 40.69 41.28 42.22 43.31 43.94 44.99 47.77 49.91 50.60 51.80
33.53 34.01 33.49 33.32 32.88 32.73 32.82 33.01 32.64 31.81 32.14 31.91 31.25 31.28 30.59 31.73 31.67 30.91 29.25 27.70 25.39 28.22 30.08 30.87 34.50 35.74 36.80 36.58 36.20 37.07 35.37 37.32 37.99 39.35 40.24 40.91 41.79 42.73 43.35 44.57 46.54 48.74 49.70
33.17 33.09 33.37 32.66 32.49 32.18 32.02 32.51 31.84 31.09 32.06 32.02 31.31 31.44 30.86 31.40 31.62 30.97 30.63 29.92 26.87 22.89 24.11 29.19 29.85 33.37 33.71 33.92 34.43 33.81 33.09 35.55 36.68 37.73 38.46 39.54 40.38 41.23 42.06 42.94 43.94 45.28 48.14
32.76 32.54 32.32 32.24 31.79 31.52 31.13 31.42 31.01 31.06 29.88 30.57 30.12 29.72 29.75 30.24 29.84 30.48 30.18 29.77 29.00 26.26 22.67 28.31 29.10 30.82 31.59 31.83 32.47 31.97 32.29 34.49 34.34 35.70 36.73 37.69 38.49 39.41 40.39 41.36 42.35 43.40 44.77
32.48 31.72 31.40 30.89 30.27 29.78 29.42 29.48 29.04 28.44 27.73 28.19 28.89 28.13 27.67 28.51 27.61 27.82 28.16 28.08 27.32 26.88 23.19 25.30 27.84 29.12 28.32 28.36 29.45 30.27 30.53 29.85 31.21 33.61 34.68 35.89 37.08 37.95 38.91 39.73 40.72 41.66 42.68
32.02 30.73 29.96 29.41 28.79 28.33 28.13 27.44 26.95 27.28 26.33 26.11 26.65 26.33 26.07 27.04 25.72 26.12 26.25 25.33 25.07 25.50 23.32 21.03 23.96 24.59 25.29 26.23 26.64 26.62 28.66 30.37 29.52 31.98 34.32 35.75 36.45 37.09 37.67 38.34 39.04 39.75 40.46
30.29 28.88 28.57 27.81 27.22 26.90 26.48 26.51 26.37 26.06 26.06 26.03 26.06 25.35 24.95 24.75 23.59 24.13 23.74 23.16 23.33 23.71 23.01 21.58 20.84 23.80 24.08 24.82 23.88 24.97 25.44 26.25 29.11 31.17 31.43 31.87 32.81 34.36 35.79 36.64 37.42 37.85 38.69
29.06 28.08 27.47 26.63 26.04 25.69 25.29 25.38 25.32 25.49 25.79 25.87 25.92 25.37 24.54 23.56 22.72 22.31 21.41 21.39 21.89 21.28 21.30 20.15 19.78 19.92 20.82 22.51 23.06 21.52 21.28 23.76 23.48 26.99 27.82 28.23 30.13 31.70 32.91 34.15 35.46 37.62 38.50
27.98 27.27 26.10 25.18 24.76 24.11 24.38 24.81 24.80 24.80 24.42 24.24 24.43 24.17 23.99 23.85 22.96 22.68 21.13 20.78 20.49 19.15 18.70 17.80 17.18 17.77 18.26 18.66 18.65 20.89 20.08 21.11 22.02 23.49 23.37 24.04 25.30 25.42 26.74 29.53 30.15 31.96 34.36
25.06 24.08 23.01 22.73 22.27 23.32 24.00 22.72 23.75 23.17 23.28 22.68 22.15 22.88 22.74 22.61 22.37 23.10 23.09 23.28 22.31 18.94 16.91 17.04 17.08 16.23 17.53 18.92 19.81 19.38 19.36 18.12 16.03 23.67 21.83 21.43 24.28 23.39 25.08 26.28 30.07 31.72 32.72
24.15 22.91 22.29 21.90 20.94 21.60 22.87 22.33 23.61 22.24 21.80 21.90 21.72 21.05 20.80 21.53 21.35 20.44 21.51 22.50 22.50 23.03 23.91 21.24 18.66 18.59 18.38 19.81 20.09 19.03 19.07 18.93 18.49 21.84 22.07 19.57 23.12 21.92 25.06 27.46 29.67 30.29 30.78
22.57 21.52 21.20 21.01 20.41 20.54 22.10 21.95 22.25 21.07 21.23 21.37 21.08 20.54 19.73 19.66 20.42 20.44 19.84 20.03 21.03 21.83 22.05 22.16 21.31 21.25 21.67 22.24 21.84 21.32 20.63 20.98 22.38 23.82 24.42 19.16 23.00 21.67 23.95 24.74 28.66 29.15 29.36
21.60 20.94 20.70 19.33 18.35 18.57 20.89 20.90 20.69 19.98 20.19 20.35 20.86 20.74 20.32 19.86 21.54 23.59 21.69 19.60 20.17 21.20 25.14 27.21 27.36 27.53 27.46 27.91 26.82 24.30 21.13 18.57 17.00 18.96 22.89 20.54 20.81 20.63 22.08 22.32 24.15 27.97 29.05
21.41 20.63 19.63 19.13 17.50 15.97 18.73 20.08 20.15 19.42 18.37 19.41 20.55 21.20 23.04 22.76 23.81 24.42 22.13 21.55 18.99 18.61 19.60 20.06 20.66 21.42 22.89 22.75 24.75 22.43 20.47 17.32 17.73 16.96 21.53 19.38 18.95 19.11 15.76 20.67 22.50 23.49 23.31